Preview of NWS' New Version of Forecast
This preview is not operational and should not be used for support decisions.

Regional Weather Roundup (RWR)

Issued by National Weather Service (NWS)

                            
000
ASUS45 KCYS 211210
RWRWY 

WYOMING REGIONAL WEATHER ROUNDUP
NATIONAL WEATHER SERVICE CHEYENNE WY
500 AM MST THU FEB 21 2019

NOTE:  "FAIR" INDICATES FEW OR NO CLOUDS BELOW 12,000 FEET
WITH NO SIGNIFICANT WEATHER AND/OR OBSTRUCTIONS TO VISIBILITY.

WYZ001-211300-
YELLOWSTONE NATIONAL PARK
  
CITY           SKY/WX    TMP DP  RH WIND       PRES   REMARKS
LK YELLOWSTONE   N/A     -7 -11  83 CALM      29.66R                  
6HR MIN TEMP:  -7; 6HR MAX TEMP:  -1;                                

W YELLOWSTONE  NOT AVBL                                               

$$
WYZ002>013-054>058-071-098>099-211300-
NORTHERN WYOMING
  
CITY           SKY/WX    TMP DP  RH WIND       PRES   REMARKS
JACKSON        NOT AVBL                                               
CODY           FAIR      10   6  84 CALM      29.82R                  
GREYBULL       MOCLDY    13   8  81 W6        29.85R WCI   4          
6HR MIN TEMP:  13; 6HR MAX TEMP:  17;                                

WORLAND        CLOUDY    14  11  87 CALM      29.84R                  
6HR MIN TEMP:  11; 6HR MAX TEMP:  15;                                

SHERIDAN       LGT SNOW  15  11  83 NW8       29.88R FOG     WCI   4  
6HR MIN TEMP:   4; 6HR MAX TEMP:  15; 6HR PCP: TRACE;                

BUFFALO        MOCLDY    12   6  77 NW12      29.81R WCI  -2          
6HR MIN TEMP:   8; 6HR MAX TEMP:  15;                                

GILLETTE       FAIR      -2  -5  87 S7        29.84R WCI -15          
6HR MIN TEMP:  -8; 6HR MAX TEMP:   6;                                

HULETT         FAIR       0  -4  85 MISG      29.86R                  
NEWCASTLE        N/A      3  -2  78 CALM      29.87                   

$$
WYZ014>020-022>026-101>103-211300-
CENTRAL WYOMING
  
CITY           SKY/WX    TMP DP  RH WIND       PRES   REMARKS
BIG PINEY      CLOUDY     0  -6  76 CALM      29.65S                  
6HR MIN TEMP:  -9; 6HR MAX TEMP:   0; 6HR PCP: TRACE;                

PINEDALE       FLURRIES -17 -24  70 W6        29.67  WCI -31          
DUBOIS         FAIR      -4  -9  77 NW7       29.65  WCI -18          
LANDER         FAIR      10  -1  61 NW7       29.74R WCI  -1          
6HR MIN TEMP:   8; 6HR MAX TEMP:  14;                                

RIVERTON       FAIR       9   1  70 N9        29.74R WCI  -4          
6HR MIN TEMP:   5; 6HR MAX TEMP:  12;                                

CASPER         FAIR      -1  -5  82 NW5       29.76R WCI -11          
6HR MIN TEMP:  -1; 6HR MAX TEMP:  11;                                

DOUGLAS          N/A      3  -2  79 NW5       29.79S WCI  -6          
6HR MIN TEMP:   3; 6HR MAX TEMP:  13;                                


$$
WYZ021-027>030-104>119-211300-
SOUTHERN WYOMING
  
CITY           SKY/WX    TMP DP  RH WIND       PRES   REMARKS
EVANSTON       CLOUDY     7   2  80 E12       29.56F HAZE    WCI  -8  
6HR MIN TEMP:   4; 6HR MAX TEMP:   9;                                

ROCK SPRINGS   LGT SNOW   6   2  83 NE7       29.62S FOG     WCI  -6  
6HR MIN TEMP:   3; 6HR MAX TEMP:   8; 6HR PCP: TRACE;                

DIXON          CLOUDY    14   5  67 E10       29.65F WCI   1          
RAWLINS        CLOUDY    10   5  80 CALM      29.66R                  
6HR MIN TEMP:   6; 6HR MAX TEMP:  12;                                

SARATOGA       FAIR       9   1  72 CALM      29.64S                  
LARAMIE        MOCLDY     8   2  76 S12       29.64R WCI  -7          
6HR MIN TEMP:   1; 6HR MAX TEMP:   8;                                

CHEYENNE       MOCLDY     8   1  73 CALM      29.73R                  
6HR MIN TEMP:   8; 6HR MAX TEMP:  12;                                

TORRINGTON     FAIR      10   4  76 E6        29.83R WCI   0          
6HR MIN TEMP:   8; 6HR MAX TEMP:  20;                                

PINE BLUFFS    CLOUDY     3  -2  78 MISG      29.80R                  

$$
  

000
ASUS45 KCYS 211210
RWRWY 

WYOMING REGIONAL WEATHER ROUNDUP
NATIONAL WEATHER SERVICE CHEYENNE WY
500 AM MST THU FEB 21 2019

NOTE:  "FAIR" INDICATES FEW OR NO CLOUDS BELOW 12,000 FEET
WITH NO SIGNIFICANT WEATHER AND/OR OBSTRUCTIONS TO VISIBILITY.

WYZ001-211300-
...YELLOWSTONE NATIONAL PARK...
  
CITY           SKY/WX    TMP DP  RH WIND       PRES   REMARKS
LK YELLOWSTONE   N/A     -7 -11  83 CALM      29.66R                  
6HR MIN TEMP:  -7; 6HR MAX TEMP:  -1;                                

W YELLOWSTONE  NOT AVBL                                               

$$
WYZ002>013-054>058-071-098>099-211300-
...NORTHERN WYOMING...
  
CITY           SKY/WX    TMP DP  RH WIND       PRES   REMARKS
JACKSON        NOT AVBL                                               
CODY           MOCLDY    10   6  84 CALM      29.82R                  
GREYBULL       MOCLDY    13   8  81 W6        29.85R WCI   4          
6HR MIN TEMP:  13; 6HR MAX TEMP:  17;                                

WORLAND        CLOUDY    14  11  87 CALM      29.84R                  
6HR MIN TEMP:  11; 6HR MAX TEMP:  15;                                

SHERIDAN       LGT SNOW  15  11  83 NW8       29.88R FOG     WCI   4  
6HR MIN TEMP:   4; 6HR MAX TEMP:  15; 6HR PCP: TRACE;                

BUFFALO        MOCLDY    12   6  77 NW12      29.81R WCI  -2          
6HR MIN TEMP:   8; 6HR MAX TEMP:  15;                                

GILLETTE       CLEAR     -2  -5  87 S7        29.84R WCI -15          
6HR MIN TEMP:  -8; 6HR MAX TEMP:   6;                                

HULETT         FAIR       0  -4  85 MISG      29.86R                  
NEWCASTLE        N/A      3  -2  78 CALM      29.87R                  

$$
WYZ014>020-022>026-101>103-211300-
...CENTRAL WYOMING...
  
CITY           SKY/WX    TMP DP  RH WIND       PRES   REMARKS
BIG PINEY      CLOUDY     0  -6  76 CALM      29.65S                  
6HR MIN TEMP:  -9; 6HR MAX TEMP:   0; 6HR PCP: TRACE;                

PINEDALE       FLURRIES -17 -24  70 W6        29.67S WCI -31          
DUBOIS         FAIR      -4  -9  77 NW7       29.65R WCI -18          
LANDER         PTCLDY    10  -1  61 NW7       29.74R WCI  -1          
6HR MIN TEMP:   8; 6HR MAX TEMP:  14;                                

RIVERTON       CLEAR      9   1  70 N9        29.74R WCI  -4          
6HR MIN TEMP:   5; 6HR MAX TEMP:  12;                                

CASPER         PTCLDY    -1  -5  82 NW5       29.76R WCI -11          
6HR MIN TEMP:  -1; 6HR MAX TEMP:  11;                                

DOUGLAS          N/A      3  -2  79 NW5       29.79S WCI  -6          
6HR MIN TEMP:   3; 6HR MAX TEMP:  13;                                


$$
WYZ021-027>030-104>119-211300-
...SOUTHERN WYOMING...
  
CITY           SKY/WX    TMP DP  RH WIND       PRES   REMARKS
EVANSTON       CLOUDY     7   2  80 E12       29.56F HAZE    WCI  -8  
6HR MIN TEMP:   4; 6HR MAX TEMP:   9;                                

KEMMERER       NOT AVBL                                               
FORT BRIDGER   LGT SNOW   4   2  91 NE3       29.63S                  
ROCK SPRINGS   LGT SNOW   6   2  83 NE7       29.62S FOG     WCI  -6  
6HR MIN TEMP:   3; 6HR MAX TEMP:   8; 6HR PCP: TRACE;                

DIXON          CLOUDY    14   5  67 E10       29.65F WCI   1          
RAWLINS        CLOUDY    10   5  80 CALM      29.66R                  
6HR MIN TEMP:   6; 6HR MAX TEMP:  12;                                

SARATOGA       FAIR       9   1  72 CALM      29.64S                  
LARAMIE        MOCLDY     8   2  76 S12       29.64R WCI  -7          
6HR MIN TEMP:   1; 6HR MAX TEMP:   8;                                

CHEYENNE       MOCLDY     8   1  73 CALM      29.73R                  
6HR MIN TEMP:   8; 6HR MAX TEMP:  12;                                

TORRINGTON     PTCLDY    10   4  76 E6        29.83R WCI   0          
6HR MIN TEMP:   8; 6HR MAX TEMP:  20;                                

PINE BLUFFS    CLOUDY     3  -2  78 MISG      29.80R                  

$$